Regional Weather Roundup
Issued by NWS

Home | Current Version | Previous Version | Graphics & Text | Print | Product List | Glossary On
Versions: 1 2 3 4 5 6 7 8 9 10 11 12 13 14 15 16 17 18 19 20 21 22 23 24 25 26 27 28 29 30 31 32 33 34 35 36 37 38 39 40 41 42 43 44 45 46 47 48 49 50
000
ASUS43 KMPX 220410
RWRMN
WEATHER ROUNDUP FOR MINNESOTA
NATIONAL WEATHER SERVICE TWIN CITIES/CHANHASSEN MN
1100 PM CDT MON JUL 21 2014


NOTE: "FAIR" INDICATES FEW OR NO CLOUDS BELOW 12,000 FEET WITH NO
SIGNIFICANT WEATHER AND/OR OBSTRUCTIONS TO VISIBILITY. N/A MEANS
CURRENT SKY AND/OR WEATHER CONDITIONS ARE NOT AVAILABLE.

MNZ060>063-068>070-220500-
   Twin Cities Metro

CITY           SKY/WX    TMP DP  RH WIND       PRES   REMARKS
TWIN CITIES    PTCLDY    82  74  76 S16G25    29.80F
ST PAUL          N/A     81  73  76 S10       29.80F
CRYSTAL        PTCLDY    84  74  71 S10       29.79S HX  91
BLAINE         PTCLDY    84  75  74 S17       29.81R HX  92
LAKEVILLE      PTCLDY    79  73  83 S12G17    29.81F
EDEN PRAIRIE   CLEAR     81  76  84 S10       29.79F
SOUTH ST PAUL  PTCLDY    82  73  73 S12G18    29.80F
LAKE ELMO      FAIR      81  73  78 S14G23    29.82F
$$
MNZ001>005-007-008-013>017-022>024-027-028-220500-
   Northwest Minnesota

CITY           SKY/WX    TMP DP  RH WIND       PRES   REMARKS
BEMIDJI        TSTM      65  64  96 W12G40    29.79R VSB 1
HALLOCK        TSTM      66  64  94 NE13      29.79F
ROSEAU         CLOUDY    66  61  82 N9        29.81R
WARROAD        CLOUDY    66  63  88 NW9G18    29.78R
THIEF RVR FALL CLOUDY    66  64  94 N25       29.74F THUNDER
FOSSTON        RAIN      64  63  94 E3        29.77F
DETROIT LAKES  TSTM      64  64 100 E10       29.79F
MOORHEAD       LGT RAIN  70  70 100 S8        29.74F
PARK RAPIDS    HVY RAIN  67  65  93 NW26G36   29.84R FOG
$$
MNZ006-009>011-018-025>026-220500-
   North Central Minnesota

CITY           SKY/WX    TMP DP  RH WIND       PRES   REMARKS
BAUDETTE       HVY RAIN  66  65  96 N41G48    29.65F VSB 3/4
FLAG ISLAND    CLOUDY    70  64  83 N23       29.74F
INTL FALLS     CLOUDY    79  73  82 NE8       29.71F
WASKISH        TSTM      72  66  83 S16G41    29.75R
BIG FORK       CLOUDY   N/A N/A N/A S8G16     29.74S
LONGVILLE      CLOUDY    81  75  83 S13       29.75R
GRAND RAPIDS   CLOUDY    81  73  78 S17       29.76R
CRANE LAKE     CLOUDY    73  72  94 CALM      29.77F
ORR            CLOUDY    79  70  73 SE8       29.72F
COOK           CLOUDY    79  73  83 SE6       29.76F
$$
MNZ012-019>021-037-220500-
   Northeast Minnesota

CITY           SKY/WX    TMP DP  RH WIND       PRES   REMARKS
DULUTH         CLOUDY    80  72  76 SE10      29.81F
ELY            PTCLDY    77  70  78 SE7       29.80F
HIBBING        CLOUDY    81  73  76 S7        29.78F
EVELETH        MOCLDY    77  72  83 SE9       29.79F
DULUTH HARBOR  MOCLDY    63  61  94 N9        29.80S
TWO HARBORS    PTCLDY    73  68  83 CALM      29.81S
SILVER BAY     CLEAR     75  73  94 CALM      29.81F
GRAND MARAIS     N/A     64  63  96 NE6       29.83F
G MARAIS ARPRT MOCLDY    70  66  88 E6        29.90F
$$
MNZ029>031-032-039>041-046>048-054>057-064-220500-
   West Central Minnesota

CITY           SKY/WX    TMP DP  RH WIND       PRES   REMARKS
FERGUS FALLS   CLOUDY    66  64  94 NE5       29.78F
WHEATON        CLOUDY    66  64  94 CALM      29.80F
MORRIS         TSTM      70  64  83 NW14G29   29.82R
ALEXANDRIA     TSTM      68  65  90 W24G55    29.92R SQUALL  VSB 3/4
ELBOW LAKE     TSTM      68  66  95 CALM      29.81R
WADENA         CLOUDY    79  72  78 SW6       29.80R
GLENWOOD       CLOUDY    81  73  78 S10       29.79R
APPLETON       MOCLDY    81  73  78 S6        29.74R
BENSON         MOCLDY    79  73  83 S5        29.75R
MADISON        PTCLDY    81  77  89 S7        29.75R
WILLMAR        FAIR      81  73  78 S8        29.76S
$$
MNZ033>034-036-042>043-049>051-058-059-220500-
   Central Minnesota

CITY           SKY/WX    TMP DP  RH WIND       PRES   REMARKS
ST CLOUD       MOCLDY    82  75  78 S10       29.77F
SAUK CENTRE    CLOUDY    79  73  84 S7        29.79R
PAYNESVILLE    MOCLDY    78  73  85 SE12G17   29.77F
AITKIN         LGT RAIN  82  75  78 S10       29.76S
PINE RIVER     CLOUDY    81  73  78 S12G20    29.81R
BRAINERD       CLOUDY    80  73  79 S16G23    29.77S
STAPLES        CLOUDY    79  72  78 SW7       29.80R
LONG PRAIRIE   MOCLDY    79  72  78 S9        29.79R
LITTLE FALLS   CLOUDY    79  72  78 S8        29.77S
LITCHFIELD     MOCLDY    82  77  83 SE9       29.77F HX  91
BUFFALO        PTCLDY    82  73  76 SE7G17    29.81R
MAPLE LAKE     PTCLDY    82  76  83 S5        29.80S
$$
MNZ037-044-045-052-053-220500-
   East Central Minnesota

CITY           SKY/WX    TMP DP  RH WIND       PRES   REMARKS
PRINCETON      MOCLDY    84  75  74 S13G18    29.81R HX  92
MORA           MOCLDY    79  70  73 S7        29.82R
CAMBRIDGE      MOCLDY    84  72  65 S7        29.79R
RUSH CITY      MOCLDY    80  73  76 S6        29.82R
MOOSE LAKE     CLOUDY    81  72  74 S6        29.79S
HINCKLEY       MOCLDY    81  73  78 S10       29.81R
CLOQUET        CLOUDY    81  72  74 SE8G16    29.80F
MCGREGOR       CLOUDY    81  73  78 SE13G23   29.79R
$$
MNZ071>073-080-081-089-090-097-098-220500-
   Southwest Minnesota

CITY           SKY/WX    TMP DP  RH WIND       PRES   REMARKS
MONTEVIDEO     PTCLDY    81  75  83 SW8       29.75R
GRANITE FALLS  PTCLDY    79  74  86 SE10      29.76S
CANBY          PTCLDY    81  76  86 S5        29.77R
MARSHALL       PTCLDY    81  75  83 S13       29.76R
REDWOOD FALLS  PTCLDY    80  76  87 S14       29.75F
OLIVIA         PTCLDY    79  73  83 S13       29.75F
PIPESTONE      CLEAR     79  75  89 S9        29.82R
WINDOM         CLEAR     81  75  83 S12G20    29.82S
WORTHINGTON    PTCLDY    81  75  83 S10G16    29.84S
TRACY          CLEAR     81  77  86 S15G22    29.78S
SLAYTON        CLEAR     77  76  96 CALM      29.82S FOG
$$
MNZ065>067-074>077-082>085-091>093-220500-
   South Central Minnesota

CITY           SKY/WX    TMP DP  RH WIND       PRES   REMARKS
MANKATO        CLEAR     82  73  74 S14G20    29.82S
NEW ULM        CLEAR     81  77  89 S14       29.78F
ST JAMES       CLEAR     81  75  83 SE9G20    29.80F
FAIRMONT       PTCLDY    81  73  78 S13       29.83S
GLENCOE        MOCLDY    82  74  76 S9        29.78F
FARIBAULT      PTCLDY    84  72  65 S13G18    29.84S
OWATONNA       PTCLDY    81  73  78 S14G23    29.85F
WASECA         PTCLDY    79  70  73 SE10G17   29.85F
ALBERT LEA     MOCLDY    81  75  83 S14G20    29.86F
$$
MNZ078>079-086>088-094>096-220500-
   Southeast Minnesota

CITY           SKY/WX    TMP DP  RH WIND       PRES   REMARKS
ROCHESTER      MOCLDY    79  71  76 S14G23    29.91S
RED WING       MOCLDY    82  72  69 S12G22    29.83F
STANTON        PTCLDY    81  73  76 S12G17    29.81F
DODGE CENTER   MOCLDY    81  73  78 S18G25    29.88F
WINONA         CLEAR     79  70  73 S7        29.89F
AUSTIN         MOCLDY    81  73  78 S10G17    29.88F
PRESTON        CLEAR     76  74  94 S14       29.92F
$$
ABBREVIATIONS USED IN REMARKS
   TC - TEMPERATURES IN CELSIUS
  WCI - WIND CHILL INDEX
   HX - HEAT INDEX
  VSB - VISIBILITY
$$


USA.gov is the U.S. government's official web portal to all federal, state and local government web resources and services.